Regional Weather Roundup
Issued by NWS Upton, NY

Current Version | Previous Version | Text Only | Print | Product List | Glossary On
Versions: 1 2 3 4 5 6 7 8 9 10 11 12 13 14 15 16 17 18 19 20 21 22 23 24 25 26 27
000
ASUS41 KOKX 281108
RWROKX

REGIONAL WEATHER ROUNDUP
NATIONAL WEATHER SERVICE NEW YORK NY
700 AM EDT TUE MAR 28 2017

NOTE: "FAIR" INDICATES FEW OR NO CLOUDS BELOW 12,000 FEET WITH NO
SIGNIFICANT WEATHER AND/OR OBSTRUCTIONS TO VISIBILITY.

NYZ071-072-176-178-NJZ106-104-281200-
NEW YORK CITY METRO AREA

CITY           SKY/WX    TMP DP  RH WIND       PRES   REMARKS
Central Park   CLOUDY    43  41  93 E6        29.97S FOG
Wall St Helipt CLOUDY    43  43 100 NE8       29.96S
LaGuardia APRT CLOUDY    43  39  86 NE9       29.95S FOG
Kennedy INTL   CLOUDY    45  44  97 E6        29.97R FOG
Breezy Point     N/A     41 N/A N/A E9          N/A
Newark/Liberty CLOUDY    45  44  97 NE5       29.95S
Teterboro      CLOUDY    44  41  89 E6        29.95S FOG
$$

NYZ177-179-078>081-281200-
LONG ISLAND NEW YORK

CITY           SKY/WX    TMP DP  RH WIND       PRES   REMARKS
Jones Beach      N/A     43 N/A N/A E13G18      N/A
Matinecock PT  NOT AVBL
Farmingdale    CLOUDY    44  42  93 E8        29.96F
MacArthur/ISP  CLOUDY    43  43 100 E5        29.97S FOG
Shirley        CLOUDY    42  42 100 VRB3      29.98R
Westhampton    LGT RAIN  42  40  92 NE9       30.00S
East Hampton   RAIN      39  39  99 E3        29.99R
Montauk        NOT AVBL
$$

NYZ052-065-067-281200-
HUDSON VALLEY

CITY           SKY/WX    TMP DP  RH WIND       PRES   REMARKS
White Plains   FOG       40  39  97 E9        29.94S VSB 3/4 WCI  34
Newburgh       LGT RAIN  43  43 100 SE6       29.94S VSB 1/2
Montgomery     CLOUDY    41  40  96 CALM      29.93R FOG
Poughkeepsie   CLOUDY    39  39 100 CALM      29.94R FOG
Albany         CLOUDY    39  36  89 CALM      29.94R FOG
$$

NJZ001-105-106-008-010-013-015-019>022-104-281200-
NEW JERSEY

CITY           SKY/WX    TMP DP  RH WIND       PRES   REMARKS
Newark/Liberty CLOUDY    45  44  97 NE5       29.95S
Teterboro      CLOUDY    44  41  89 E6        29.95S FOG
Caldwell       CLOUDY    44  42  93 E5        29.96R FOG
Somerville     CLOUDY    47  46  97 E3        29.92S FOG
Linden         CLOUDY    46  44  93 CALM      29.95R FOG
Sussex         CLOUDY    43  43 100 E3        29.92S FOG
Andover          N/A     44  43  96 CALM      29.92S
Trenton        FOG       45  45 100 NE12      29.91S VSB 3/4
Millville      CLOUDY    50  50 100 CALM      29.88S
Atlantic City  MOCLDY    50  46  86 NE5       29.90R
Wrightstown    CLOUDY    47  46  98 E8        29.89R
Toms River     CLOUDY    45  45 100 NE6       29.92S
Belmar         CLOUDY    44  43  96 E6        29.94R FOG
$$

PAZ047>061-062-071-281200-
EASTERN PENNSYLVANIA

CITY           SKY/WX    TMP DP  RH WIND       PRES   REMARKS
Philadelphia   CLOUDY    50  49  96 NE9       29.89F FOG
Allentown      CLOUDY    49  46  90 E7        29.91S FOG
Scranton       LGT RAIN  51  50  96 E5        29.88S FOG
$$

CTZ002-004>006-009-010-012-RIZ004-006-007-MAZ004-011-015-281200-
SOUTHERN NEW ENGLAND
 IN CT

CITY           SKY/WX    TMP DP  RH WIND       PRES   REMARKS
Bradley INTL   FOG       38  38 100 CALM      29.99R VSB 1/4
Hartford       LGT RAIN  39  38  96 N3        29.99R FOG
Danbury        CLOUDY    41  41 100 CALM      29.97S FOG
Wtrbury/Oxford FOG       37  36  93 CALM      29.97R VSB 1
Bridgeport     CLOUDY    41  38  89 NE8       30.00R
Meriden        LGT RAIN  40  38  93 CALM      29.99R FOG
New Haven      LGT RAIN  39  38  96 CALM      30.00R FOG
Chester        NOT AVBL
Groton         LGT RAIN  41  40  96 SE6       29.99S VSB 1/2
Wilimantic     CLOUDY    41  39  93 CALM      29.99R

 IN RI

CITY           SKY/WX    TMP DP  RH WIND       PRES   REMARKS
Providence     CLOUDY    39  38  96 E5        30.02R FOG
Block Island   LGT RAIN  38  38 100 E10       30.01R VSB 1/4 WCI  31
Westerly       FOG       40  40 100 E9        30.01R VSB 1/2 WCI  34
 IN MA

CITY           SKY/WX    TMP DP  RH WIND       PRES   REMARKS
Boston         CLOUDY    36  35  96 E3        30.05R
Worcester      FOG       34  32  92 NE6       29.96F VSB<1/4 WCI  29
Westfield      FOG       37  37 100 CALM      29.98R VSB 1/4
Provincetown   CLOUDY    38  36  92 N5        30.05R WCI  34
Nantucket      FOG       38  37  97 NE5       30.02S VSB 1/2 WCI  34
$$

ANZ330-335-338-340-345-350-353-355-281200-
COASTAL MARINE OBSERVATIONS


STATION/POSITION TIME  SKY/WX   TEMP    WIND        PRES    VSBY  WAVE
                                AIR SEA DIR/SP/G                  HT/PER
                 (UTC)          (F)     (DEG/KT/KT) (MB)    (MI)  (FT/S)
NY HARB ENTRANCE 0950            42 42   90/ 16/ 21 1013.3          3/ 6
20 S FIRE ISLAND 1050            43 41   90/  8/ 10 1014.3          4/ 8
GREAT SOUTH BAY  NOT AVBL
23 SSW MONTAUK P 0950            41 42              1015.6          3/ 7
15 E BARNEGAT LI 1030               44                N/A           3/ 8
HUDSON CANYON    0950            47 44  110/  8/  8 1013.9          4/ 9
KINGS POINT      1042            40 40              1014.3
EXECUTION ROCKS  NOT AVBL
CENTRAL LI SOUND 1030            39      80/  8/ 10   N/A           1
EASTERN LI SOUND NOT AVBL
ROBBINS REEF     1042            43      60/  7/  7 1014.4
$$


>>>>>>>>>>>>>>>>>>>>>>>>>>>> KEY <<<<<<<<<<<<<<<<<<<<<<<<<<<
>                                                          <
>     SKY/WX - Sky Condition/Present Weather               <
>     TMP    - Temperature in Fahrenheit                   <
>     DP     - Dew Point in Fahrenheit                     <
>     RH     - Relative Humidity in Percent                <
>     WIND   - Direction (from) and Speed in MPH           <
>     PRES   - Mean Sea Level Pressure (inches of Hg)      <
>     WCI    - Wind Chill Index                            <
>     VSB    - VISIBILITY IN MILES                         <
>     HX     - HEAT INDEX                                  <
>     TC     - TEMPERATURE IN CELSIUS                      <
>     VRB    - VARIABLE WIND DIRECTION                     <
>                                                          <
>>>>>>>>>>>>>>>>>>>>>>>>>>>> KEY <<<<<<<<<<<<<<<<<<<<<<<<<<<




USA.gov is the U.S. government's official web portal to all federal, state and local government web resources and services.